Date String (YYYY-MM-DD hh:mm:ss) UTC,Instrument flags,Ambient pressure (hPa),Sample flow (lpm),Bypass flow (lpm),Sample temperature (°C),Ambient temperature (°C),ASC tube jacket temperature (°C),LED temperature (°C),Box temperature (°C),Sample RH (%),Span deviation,Mass concentration (μg/m³),Mass concentration (μg/m³),Mass concentration (μg/m³)
DateTimeUTC,F1_M11,P_M11,Q1_M11,Q2_M11,T1_M11,T2_M11,T3_M11,T4_M11,T5_M11,U1_M11,ZSPAN_M11,X0_M11,X2_M11,X1_M11
2022-10-15 04:00:00,,0824.8,4.99,0.00,29.7,28.3,00.0,38.5,31.5,06.5,0000.0,0005.52,0002.57,0002.00
2022-10-15 04:01:00,,0824.8,5.01,0.00,29.7,28.3,00.0,38.5,31.5,06.6,0000.0,0005.48,0002.56,0002.01
2022-10-15 04:02:00,,0824.8,4.99,0.00,29.7,28.3,00.0,38.5,31.5,06.6,0000.0,0005.22,0002.52,0002.01
2022-10-15 04:03:00,,0824.9,5.01,0.00,29.7,28.3,00.0,38.5,31.5,06.6,0000.0,0005.11,0002.48,0002.01
2022-10-15 04:04:00,,0824.9,4.98,0.00,29.7,28.3,00.0,38.5,31.5,06.6,0000.0,0004.29,0002.49,0002.01
2022-10-15 04:05:00,,0824.9,5.01,0.00,29.7,28.3,00.0,38.5,31.5,06.7,0000.0,0004.05,0002.45,0002.01
2022-10-15 04:06:00,,0824.9,5.00,0.00,29.7,28.3,00.0,38.5,31.5,06.7,0000.0,0003.95,0002.42,0002.02
2022-10-15 04:07:00,,0824.9,4.99,0.00,29.7,28.3,00.0,38.5,31.5,06.7,0000.0,0004.03,0002.41,0002.02
2022-10-15 04:08:00,,0824.9,5.01,0.00,29.7,28.3,00.0,38.6,31.6,06.8,0000.0,0004.17,0002.42,0002.03
2022-10-15 04:09:00,,0824.9,5.00,0.00,29.7,28.3,00.0,38.6,31.6,06.8,0000.0,0003.74,0002.41,0002.03
2022-10-15 04:10:00,,0824.9,5.01,0.00,29.8,28.3,00.0,38.6,31.6,06.7,0000.0,0003.70,0002.40,0002.02
2022-10-15 04:11:00,,0824.9,4.98,0.00,29.8,28.3,00.0,38.6,31.6,06.6,0000.0,0003.76,0002.42,0002.03
2022-10-15 04:12:00,,0824.9,5.01,0.00,29.8,28.3,00.0,38.6,31.6,06.7,0000.0,0004.74,0002.38,0002.02
2022-10-15 04:13:00,,0824.9,4.99,0.00,29.8,28.4,00.0,38.6,31.6,06.7,0000.0,0005.86,0002.48,0002.02
2022-10-15 04:14:00,,0824.9,5.02,0.00,29.8,28.4,00.0,38.6,31.6,06.7,0000.0,0006.46,0002.50,0002.01
2022-10-15 04:15:00,,0824.9,4.99,0.00,29.8,28.3,00.0,38.6,31.6,06.7,0000.0,0006.53,0002.50,0002.02
2022-10-15 04:16:00,,0824.9,5.00,0.00,29.8,28.3,00.0,38.6,31.6,06.7,0000.0,0006.91,0002.57,0002.03
2022-10-15 04:17:00,,0824.9,5.01,0.00,29.8,28.3,00.0,38.6,31.6,06.7,0000.0,0007.07,0002.59,0002.03
2022-10-15 04:18:00,,0824.9,4.99,0.00,29.8,28.3,00.0,38.6,31.6,06.7,0000.0,0007.07,0002.59,0002.04
2022-10-15 04:19:00,,0824.9,5.00,0.00,29.8,28.3,00.0,38.6,31.6,06.7,0000.0,0007.09,0002.63,0002.05
2022-10-15 04:20:00,,0824.9,5.01,0.00,29.8,28.3,00.0,38.6,31.6,06.6,0000.0,0007.16,0002.66,0002.06
2022-10-15 04:21:00,,0824.9,4.99,0.00,29.8,28.3,00.0,38.6,31.6,06.6,0000.0,0006.93,0002.62,0002.06
2022-10-15 04:22:00,,0824.9,5.01,0.00,29.8,28.3,00.0,38.6,31.6,06.7,0000.0,0007.25,0002.65,0002.06
2022-10-15 04:23:00,,0824.9,4.99,0.00,29.8,28.3,00.0,38.6,31.6,06.7,0000.0,0006.96,0002.68,0002.05
2022-10-15 04:24:00,,0824.9,5.00,0.00,29.8,28.3,00.0,38.6,31.6,06.6,0000.0,0006.81,0002.58,0002.06
2022-10-15 04:25:00,,0824.9,5.01,0.00,29.8,28.3,00.0,38.6,31.6,06.6,0000.0,0006.69,0002.59,0002.07
2022-10-15 04:26:00,,0824.9,4.99,0.00,29.8,28.3,00.0,38.6,31.6,06.6,0000.0,0006.81,0002.65,0002.08
2022-10-15 04:27:00,,0824.9,5.02,0.00,29.8,28.3,00.0,38.6,31.6,06.6,0000.0,0006.67,0002.65,0002.07
2022-10-15 04:28:00,,0824.9,4.99,0.00,29.8,28.4,00.0,38.6,31.6,06.6,0000.0,0006.70,0002.69,0002.08
2022-10-15 04:29:00,,0824.9,5.00,0.00,29.8,28.4,00.0,38.6,31.6,06.7,0000.0,0006.78,0002.69,0002.08
2022-10-15 04:30:00,,0824.9,5.00,0.00,29.8,28.3,00.0,38.6,31.6,06.7,0000.0,0006.71,0002.65,0002.06
2022-10-15 04:31:00,,0824.9,4.99,0.00,29.8,28.4,00.0,38.6,31.6,06.7,0000.0,0006.74,0002.64,0002.05
2022-10-15 04:32:00,,0824.9,5.01,0.00,29.8,28.4,00.0,38.6,31.6,06.7,0000.0,0006.98,0002.68,0002.03
2022-10-15 04:33:00,,0824.9,5.00,0.00,29.8,28.4,00.0,38.6,31.7,06.7,0000.0,0007.49,0002.65,0002.02
2022-10-15 04:34:00,,0824.9,4.99,0.00,29.8,28.4,00.0,38.6,31.7,06.7,0000.0,0007.13,0002.65,0002.03
2022-10-15 04:35:00,,0824.9,5.00,0.00,29.8,28.4,00.0,38.6,31.7,06.8,0000.0,0006.40,0002.67,0002.02
2022-10-15 04:36:00,,0824.9,4.98,0.00,29.8,28.4,00.0,38.6,31.7,06.7,0000.0,0005.65,0002.66,0002.03
2022-10-15 04:37:00,,0824.9,5.02,0.00,29.8,28.4,00.0,38.6,31.7,06.8,0000.0,0005.73,0002.65,0002.04
2022-10-15 04:38:00,,0824.9,5.00,0.00,29.8,28.4,00.0,38.7,31.7,06.7,0000.0,0006.17,0002.61,0002.05
2022-10-15 04:39:00,,0824.9,4.99,0.00,29.9,28.5,00.0,38.7,31.7,06.7,0000.0,0006.15,0002.63,0002.08
2022-10-15 04:40:00,,0825.0,5.01,0.00,29.9,28.5,00.0,38.7,31.7,06.7,0000.0,0005.97,0002.62,0002.09
2022-10-15 04:41:00,,0825.0,4.99,0.00,29.9,28.5,00.0,38.7,31.7,06.8,0000.0,0006.04,0002.68,0002.11
2022-10-15 04:42:00,,0825.0,5.00,0.00,29.9,28.5,00.0,38.7,31.7,06.6,0000.0,0006.23,0002.76,0002.13
2022-10-15 04:43:00,,0825.0,5.01,0.00,29.9,28.5,00.0,38.7,31.7,06.7,0000.0,0006.35,0002.82,0002.17
2022-10-15 04:44:00,,0825.0,4.99,0.00,29.9,28.5,00.0,38.7,31.7,06.7,0000.0,0005.43,0002.83,0002.19
2022-10-15 04:45:00,,0825.0,5.00,0.00,29.9,28.5,00.0,38.7,31.7,06.7,0000.0,0005.14,0002.84,0002.20
2022-10-15 04:46:00,,0825.1,5.01,0.00,29.9,28.5,00.0,38.7,31.7,06.7,0000.0,0005.85,0002.85,0002.23
2022-10-15 04:47:00,,0825.0,4.98,0.00,29.9,28.5,00.0,38.7,31.7,06.7,0000.0,0006.43,0002.90,0002.25
2022-10-15 04:48:00,,0825.0,5.01,0.00,29.9,28.5,00.0,38.7,31.7,06.8,0000.0,0006.38,0002.95,0002.26
2022-10-15 04:49:00,,0825.1,4.99,0.00,29.9,28.5,00.0,38.7,31.7,06.8,0000.0,0005.80,0002.97,0002.27
2022-10-15 04:50:00,,0825.0,5.00,0.00,29.9,28.5,00.0,38.7,31.8,06.8,0000.0,0006.35,0002.93,0002.25
2022-10-15 04:51:00,,0825.1,5.02,0.00,29.9,28.5,00.0,38.7,31.7,06.7,0000.0,0006.80,0002.94,0002.24
2022-10-15 04:52:00,,0825.1,4.99,0.00,29.9,28.5,00.0,38.7,31.7,06.7,0000.0,0007.04,0002.90,0002.24
2022-10-15 04:53:00,,0825.0,4.99,0.00,29.9,28.5,00.0,38.7,31.7,06.7,0000.0,0007.00,0002.89,0002.24
2022-10-15 04:54:00,,0825.0,5.02,0.00,29.9,28.5,00.0,38.7,31.7,06.7,0000.0,0006.81,0002.84,0002.23
2022-10-15 04:55:00,,0825.0,5.00,0.00,29.9,28.5,00.0,38.7,31.7,06.7,0000.0,0006.81,0002.83,0002.24
2022-10-15 04:56:00,,0825.0,4.99,0.00,29.9,28.5,00.0,38.8,31.7,06.7,0000.0,0007.67,0002.84,0002.24
2022-10-15 04:57:00,,0825.0,5.01,0.00,29.9,28.5,00.0,38.8,31.7,06.7,0000.0,0008.04,0002.84,0002.23
2022-10-15 04:58:00,,0825.1,4.98,0.00,29.9,28.5,00.0,38.8,31.7,06.7,0000.0,0008.04,0002.86,0002.24
2022-10-15 04:59:00,,0825.1,5.01,0.00,30.0,28.5,00.0,38.8,31.7,06.7,0000.0,0008.12,0002.80,0002.23
